| time (UTC) | temp F | wind direction | speed MPH | gust MPH | rain 1hr in | rain 24hr in | rain mn in | humidity % | barometer mb |
| 20260503021203 | 49 | 0 | 0.0 | 0.0 | 0.00 | 0.00 | 0.00 | 56 | 1014.7 |
| 20260503020203 | 49 | 0 | 0.0 | 0.0 | 0.00 | 0.00 | 0.00 | 55 | 1014.7 |
| 20260503015704 | 49 | 0 | 0.0 | 0.0 | 0.00 | 0.00 | 0.00 | 55 | 1014.7 |
| 20260503015204 | 49 | 0 | 0.0 | 0.0 | 0.00 | 0.00 | 0.00 | 54 | 1014.7 |
| 20260503014704 | 49 | 0 | 0.0 | 0.0 | 0.00 | 0.00 | 0.00 | 55 | 1014.6 |
| 20260503014204 | 49 | 0 | 0.0 | 0.0 | 0.00 | 0.00 | 0.00 | 54 | 1014.6 |
| 20260503013204 | 49 | 0 | 0.0 | 0.0 | 0.00 | 0.00 | 0.00 | 55 | 1014.5 |
| 20260503012704 | 49 | 0 | 0.0 | 0.0 | 0.00 | 0.00 | 0.00 | 54 | 1014.5 |
| 20260503011703 | 50 | 0 | 0.0 | 0.0 | 0.00 | 0.00 | 0.00 | 53 | 1014.5 |
| 20260503011205 | 50 | 0 | 0.0 | 0.0 | 0.00 | 0.00 | 0.00 | 53 | 1014.5 |
| 20260503010704 | 50 | 0 | 0.0 | 0.0 | 0.00 | 0.00 | 0.00 | 52 | 1014.6 |
| 20260503010203 | 51 | 0 | 0.0 | 0.0 | 0.00 | 0.00 | 0.00 | 52 | 1014.6 |
| 20260503005704 | 51 | 0 | 0.0 | 0.0 | 0.00 | 0.00 | 0.00 | 52 | 1014.6 |
| 20260503005203 | 51 | 0 | 0.0 | 0.0 | 0.00 | 0.00 | 0.00 | 50 | 1014.6 |
| 20260503004703 | 52 | 0 | 0.0 | 0.0 | 0.00 | 0.00 | 0.00 | 50 | 1014.6 |
| 20260503004203 | 52 | 0 | 0.0 | 0.0 | 0.00 | 0.00 | 0.00 | 49 | 1014.6 |
| 20260503003703 | 52 | 0 | 0.0 | 0.0 | 0.00 | 0.00 | 0.00 | 50 | 1014.6 |
| 20260503003203 | 53 | 0 | 0.0 | 0.0 | 0.00 | 0.00 | 0.00 | 48 | 1014.6 |
| 20260503002704 | 53 | 0 | 0.0 | 0.0 | 0.00 | 0.00 | 0.00 | 47 | 1014.6 |
| 20260503002205 | 53 | 0 | 0.0 | 0.0 | 0.00 | 0.00 | 0.00 | 48 | 1014.7 |
| 20260503000703 | 54 | 0 | 0.0 | 0.0 | 0.00 | 0.00 | 0.00 | 46 | 1014.7 |
| 20260503000204 | 54 | 0 | 0.0 | 0.0 | 0.00 | 0.00 | 0.00 | 45 | 1014.7 |
| 20260502235703 | 54 | 0 | 0.0 | 0.0 | 0.00 | 0.00 | 0.00 | 45 | 1014.7 |
| 20260502235203 | 54 | 0 | 0.0 | 0.0 | 0.00 | 0.00 | 0.00 | 45 | 1014.7 |
| 20260502234704 | 54 | 0 | 0.0 | 0.0 | 0.00 | 0.00 | 0.00 | 46 | 1014.8 |
| 20260502234204 | 55 | 0 | 0.0 | 0.0 | 0.00 | 0.01 | 0.00 | 44 | 1014.8 |
| 20260502233704 | 55 | 0 | 0.0 | 0.0 | 0.00 | 0.01 | 0.00 | 47 | 1014.9 |
| 20260502233204 | 55 | 0 | 0.0 | 0.0 | 0.00 | 0.01 | 0.00 | 45 | 1014.9 |
| 20260502232703 | 55 | 0 | 0.0 | 0.0 | 0.00 | 0.01 | 0.00 | 44 | 1014.9 |
| 20260502232203 | 56 | 0 | 0.0 | 0.0 | 0.00 | 0.01 | 0.00 | 44 | 1014.9 |
| 20260502231703 | 56 | 0 | 0.0 | 0.0 | 0.00 | 0.01 | 0.00 | 40 | 1015.0 |
| 20260502231203 | 56 | 0 | 0.0 | 0.0 | 0.00 | 0.01 | 0.00 | 44 | 1015.0 |
| 20260502230204 | 56 | 0 | 0.0 | 0.0 | 0.00 | 0.01 | 0.00 | 46 | 1015.1 |
| 20260502225704 | 56 | 0 | 0.0 | 0.0 | 0.00 | 0.02 | 0.00 | 43 | 1015.1 |
| 20260502225204 | 56 | 0 | 0.0 | 0.0 | 0.00 | 0.02 | 0.00 | 44 | 1015.1 |
| 20260502224203 | 57 | 0 | 0.0 | 0.0 | 0.00 | 0.02 | 0.00 | 44 | 1015.2 |
| 20260502223703 | 57 | 0 | 0.0 | 0.0 | 0.00 | 0.02 | 0.00 | 41 | 1015.2 |
| 20260502223203 | 57 | 0 | 0.0 | 0.0 | 0.00 | 0.02 | 0.00 | 42 | 1015.2 |
| 20260502222703 | 57 | 0 | 0.0 | 0.0 | 0.00 | 0.02 | 0.00 | 41 | 1015.2 |
| 20260502222203 | 58 | 0 | 0.0 | 0.0 | 0.00 | 0.02 | 0.00 | 40 | 1015.2 |
| 20260502221705 | 58 | 0 | 0.0 | 0.0 | 0.00 | 0.02 | 0.00 | 40 | 1015.3 |
| 20260502221204 | 58 | 0 | 0.0 | 0.0 | 0.00 | 0.02 | 0.00 | 41 | 1015.2 |
| 20260502220704 | 58 | 0 | 0.0 | 0.0 | 0.00 | 0.02 | 0.00 | 41 | 1015.3 |
| 20260502220204 | 58 | 0 | 0.0 | 0.0 | 0.00 | 0.02 | 0.00 | 39 | 1015.3 |
| 20260502215704 | 58 | 0 | 0.0 | 0.0 | 0.00 | 0.02 | 0.00 | 42 | 1015.3 |
| 20260502214703 | 57 | 0 | 0.0 | 0.0 | 0.00 | 0.02 | 0.00 | 42 | 1015.0 |
| 20260502214203 | 58 | 0 | 0.0 | 0.0 | 0.00 | 0.02 | 0.00 | 40 | 1015.1 |
| 20260502213704 | 58 | 0 | 0.0 | 0.0 | 0.00 | 0.02 | 0.00 | 41 | 1015.4 |
| 20260502213204 | 58 | 0 | 0.0 | 0.0 | 0.00 | 0.02 | 0.00 | 44 | 1015.4 |
| 20260502212704 | 58 | 0 | 0.0 | 0.0 | 0.00 | 0.02 | 0.00 | 39 | 1015.5 |
| 20260502211703 | 57 | 0 | 0.0 | 0.0 | 0.00 | 0.02 | 0.00 | 41 | 1015.6 |
| 20260502211203 | 57 | 0 | 0.0 | 0.0 | 0.00 | 0.02 | 0.00 | 41 | 1015.7 |
| 20260502210703 | 57 | 0 | 0.0 | 0.0 | 0.00 | 0.02 | 0.00 | 43 | 1015.7 |
| 20260502210203 | 57 | 0 | 0.0 | 0.0 | 0.00 | 0.02 | 0.00 | 42 | 1015.8 |
| 20260502205703 | 57 | 0 | 0.0 | 0.0 | 0.00 | 0.02 | 0.00 | 42 | 1015.9 |
| 20260502205203 | 57 | 0 | 0.0 | 0.0 | 0.00 | 0.02 | 0.00 | 42 | 1015.9 |
| 20260502204703 | 57 | 0 | 0.0 | 0.0 | 0.00 | 0.02 | 0.00 | 42 | 1015.9 |
| 20260502204204 | 57 | 0 | 0.0 | 0.0 | 0.00 | 0.02 | 0.00 | 40 | 1016.0 |
| 20260502203703 | 58 | 0 | 0.0 | 0.0 | 0.00 | 0.02 | 0.00 | 40 | 1016.0 |
| 20260502203203 | 58 | 0 | 0.0 | 0.0 | 0.00 | 0.02 | 0.00 | 41 | 1016.1 |
| 20260502202703 | 58 | 0 | 0.0 | 2.0 | 0.00 | 0.02 | 0.00 | 43 | 1016.1 |
| 20260502202204 | 58 | 263 | 0.0 | 0.0 | 0.00 | 0.02 | 0.00 | 41 | 1016.2 |
| 20260502201703 | 58 | 263 | 0.0 | 0.0 | 0.00 | 0.02 | 0.00 | 44 | 1016.2 |
| 20260502201203 | 58 | 263 | 0.0 | 0.0 | 0.00 | 0.02 | 0.00 | 42 | 1016.3 |
| 20260502200704 | 59 | 263 | 0.0 | 0.0 | 0.00 | 0.02 | 0.00 | 38 | 1016.4 |
| 20260502200206 | 59 | 263 | 0.0 | 0.0 | 0.00 | 0.02 | 0.00 | 44 | 1016.5 |
| 20260502195704 | 59 | 263 | 0.0 | 0.0 | 0.00 | 0.02 | 0.00 | 39 | 1016.6 |
| 20260502194204 | 60 | 263 | 0.0 | 0.0 | 0.00 | 0.02 | 0.00 | 36 | 1016.7 |
| 20260502193703 | 61 | 263 | 0.0 | 0.0 | 0.00 | 0.02 | 0.00 | 35 | 1016.8 |
| 20260502193203 | 60 | 263 | 0.0 | 0.0 | 0.00 | 0.02 | 0.00 | 38 | 1016.8 |
| 20260502192704 | 59 | 263 | 0.0 | 0.0 | 0.00 | 0.02 | 0.00 | 39 | 1016.9 |
| 20260502192203 | 58 | 263 | 0.0 | 0.0 | 0.00 | 0.02 | 0.00 | 39 | 1017.0 |
| 20260502191703 | 57 | 263 | 0.0 | 0.0 | 0.00 | 0.02 | 0.00 | 40 | 1017.1 |
| 20260502191204 | 57 | 263 | 0.0 | 0.0 | 0.00 | 0.02 | 0.00 | 41 | 1017.1 |
| 20260502190703 | 57 | 263 | 0.0 | 0.0 | 0.00 | 0.02 | 0.00 | 40 | 1017.1 |
| 20260502190203 | 57 | 263 | 0.0 | 0.0 | 0.00 | 0.02 | 0.00 | 42 | 1017.3 |
| 20260502185703 | 57 | 263 | 0.0 | 0.0 | 0.00 | 0.02 | 0.00 | 39 | 1017.3 |
| 20260502185204 | 57 | 263 | 0.0 | 0.0 | 0.00 | 0.02 | 0.00 | 41 | 1017.3 |
| 20260502184703 | 57 | 263 | 0.0 | 0.0 | 0.00 | 0.02 | 0.00 | 42 | 1017.4 |
| 20260502184203 | 57 | 263 | 0.0 | 0.0 | 0.00 | 0.02 | 0.00 | 45 | 1017.5 |
| 20260502183703 | 57 | 263 | 0.0 | 0.0 | 0.00 | 0.02 | 0.00 | 40 | 1017.6 |
| 20260502182204 | 57 | 263 | 0.0 | 0.0 | 0.00 | 0.02 | 0.00 | 40 | 1017.7 |
| 20260502181703 | 58 | 263 | 0.0 | 0.0 | 0.00 | 0.02 | 0.00 | 39 | 1017.7 |
| 20260502181203 | 59 | 263 | 0.0 | 0.0 | 0.00 | 0.02 | 0.00 | 38 | 1017.7 |
| 20260502180704 | 59 | 263 | 0.0 | 0.0 | 0.00 | 0.02 | 0.00 | 38 | 1017.7 |
| 20260502180204 | 58 | 263 | 0.0 | 0.0 | 0.00 | 0.02 | 0.00 | 39 | 1017.8 |
| 20260502170204 | 56 | 263 | 0.0 | 0.0 | 0.00 | 0.02 | 0.00 | 47 | 1018.3 |
| 20260502164203 | 56 | 263 | 0.0 | 0.0 | 0.00 | 0.02 | 0.00 | 47 | 1018.5 |
| 20260502163204 | 55 | 263 | 0.0 | 0.0 | 0.00 | 0.02 | 0.00 | 45 | 1018.6 |
| 20260502162704 | 56 | 263 | 0.0 | 0.0 | 0.00 | 0.02 | 0.00 | 45 | 1018.6 |
| 20260502162205 | 56 | 263 | 0.0 | 0.0 | 0.00 | 0.02 | 0.00 | 46 | 1018.7 |
| 20260502161204 | 56 | 263 | 0.0 | 0.0 | 0.00 | 0.02 | 0.00 | 52 | 1018.8 |
| 20260502152204 | 55 | 263 | 0.0 | 0.0 | 0.00 | 0.02 | 0.00 | 46 | 1019.0 |
| 20260502151704 | 55 | 263 | 0.0 | 0.0 | 0.00 | 0.02 | 0.00 | 50 | 1019.0 |
| 20260502151204 | 54 | 263 | 0.0 | 0.0 | 0.00 | 0.02 | 0.00 | 51 | 1019.0 |
| 20260502150204 | 53 | 263 | 0.0 | 0.0 | 0.00 | 0.02 | 0.00 | 51 | 1019.1 |
| 20260502130704 | 41 | 263 | 0.0 | 0.0 | 0.00 | 0.02 | 0.00 | 91 | 1019.2 |
| 20260502130204 | 40 | 263 | 0.0 | 0.0 | 0.00 | 0.02 | 0.00 | 92 | 1019.2 |
| 20260502123704 | 38 | 263 | 0.0 | 0.0 | 0.00 | 0.02 | 0.00 | 97 | 1019.2 |
| 20260502123203 | 38 | 263 | 0.0 | 0.0 | 0.00 | 0.02 | 0.00 | 97 | 1019.1 |
| 20260502122203 | 37 | 263 | 0.0 | 0.0 | 0.00 | 0.02 | 0.00 | 98 | 1019.0 |
| 20260502121704 | 36 | 263 | 0.0 | 0.0 | 0.00 | 0.02 | 0.00 | 98 | 1018.9 |
| 20260502121203 | 36 | 263 | 0.0 | 0.0 | 0.00 | 0.02 | 0.00 | 98 | 1018.8 |
| 20260502120703 | 35 | 263 | 0.0 | 0.0 | 0.00 | 0.02 | 0.00 | 98 | 1018.7 |
| 20260502120203 | 35 | 263 | 0.0 | 0.0 | 0.00 | 0.02 | 0.00 | 98 | 1018.6 |
| 20260502115704 | 34 | 263 | 0.0 | 0.0 | 0.00 | 0.02 | 0.00 | 98 | 1018.5 |
| 20260502115203 | 33 | 263 | 0.0 | 0.0 | 0.00 | 0.02 | 0.00 | 99 | 1018.5 |
| 20260502114703 | 33 | 263 | 0.0 | 0.0 | 0.00 | 0.02 | 0.00 | 99 | 1018.4 |
| 20260502114203 | 33 | 263 | 0.0 | 0.0 | 0.00 | 0.02 | 0.00 | 99 | 1018.4 |
| 20260502113703 | 32 | 263 | 0.0 | 0.0 | 0.00 | 0.02 | 0.00 | 99 | 1018.4 |
| 20260502113203 | 32 | 263 | 0.0 | 0.0 | 0.00 | 0.02 | 0.00 | 99 | 1018.4 |
| 20260502112703 | 32 | 263 | 0.0 | 0.0 | 0.00 | 0.02 | 0.00 | 99 | 1018.3 |
| 20260502112203 | 31 | 263 | 0.0 | 0.0 | 0.00 | 0.02 | 0.00 | 99 | 1018.3 |
| 20260502111703 | 31 | 263 | 0.0 | 0.0 | 0.00 | 0.02 | 0.00 | 99 | 1018.2 |
| 20260502111203 | 31 | 263 | 0.0 | 0.0 | 0.00 | 0.02 | 0.00 | 98 | 1018.2 |
| 20260502110704 | 31 | 263 | 0.0 | 0.0 | 0.00 | 0.02 | 0.00 | 99 | 1018.1 |
| 20260502110203 | 31 | 263 | 0.0 | 0.0 | 0.00 | 0.02 | 0.00 | 99 | 1018.1 |
| 20260502105703 | 31 | 263 | 0.0 | 0.0 | 0.00 | 0.02 | 0.00 | 99 | 1018.2 |
| 20260502105203 | 31 | 263 | 0.0 | 0.0 | 0.00 | 0.02 | 0.00 | 99 | 1018.2 |
| 20260502104703 | 31 | 263 | 0.0 | 0.0 | 0.00 | 0.02 | 0.00 | 99 | 1018.1 |
| 20260502104203 | 31 | 263 | 0.0 | 0.0 | 0.00 | 0.02 | 0.00 | 99 | 1018.2 |
| 20260502102703 | 31 | 263 | 0.0 | 0.0 | 0.00 | 0.02 | 0.00 | 99 | 1018.1 |
| 20260502102203 | 31 | 263 | 0.0 | 0.0 | 0.00 | 0.02 | 0.00 | 99 | 1018.1 |
| 20260502101704 | 31 | 263 | 0.0 | 0.0 | 0.00 | 0.02 | 0.00 | 98 | 1018.1 |
| 20260502101203 | 31 | 263 | 0.0 | 0.0 | 0.00 | 0.02 | 0.00 | 99 | 1018.1 |
| 20260502100705 | 31 | 263 | 0.0 | 0.0 | 0.00 | 0.02 | 0.00 | 99 | 1018.1 |
| 20260502100204 | 31 | 263 | 0.0 | 0.0 | 0.00 | 0.02 | 0.00 | 98 | 1018.1 |
| 20260502091203 | 32 | 263 | 0.0 | 0.0 | 0.00 | 0.02 | 0.00 | 98 | 1018.2 |
| 20260502090205 | 32 | 263 | 0.0 | 0.0 | 0.00 | 0.02 | 0.00 | 98 | 1018.1 |
| 20260502071204 | 33 | 263 | 0.0 | 0.0 | 0.00 | 0.03 | 0.00 | 98 | 1018.1 |
| 20260502070703 | 33 | 263 | 0.0 | 0.0 | 0.00 | 0.03 | 0.00 | 98 | 1018.1 |
| 20260502070205 | 33 | 263 | 0.0 | 0.0 | 0.00 | 0.03 | 0.00 | 98 | 1018.2 |
| 20260502065703 | 33 | 263 | 0.0 | 0.0 | 0.00 | 0.03 | 0.00 | 98 | 1018.2 |
| 20260502064703 | 33 | 263 | 0.0 | 0.0 | 0.00 | 0.03 | 0.00 | 98 | 1018.3 |
| 20260502063203 | 33 | 263 | 0.0 | 0.0 | 0.00 | 0.03 | 0.00 | 98 | 1018.5 |
| 20260502062703 | 33 | 263 | 0.0 | 0.0 | 0.00 | 0.03 | 0.00 | 98 | 1018.5 |
| 20260502062203 | 33 | 263 | 0.0 | 0.0 | 0.00 | 0.03 | 0.00 | 98 | 1018.5 |
| 20260502061204 | 33 | 263 | 0.0 | 0.0 | 0.00 | 0.03 | 0.00 | 97 | 1018.6 |
| 20260502060704 | 33 | 263 | 0.0 | 0.0 | 0.00 | 0.03 | 0.00 | 97 | 1018.6 |
| 20260502060204 | 33 | 263 | 0.0 | 0.0 | 0.00 | 0.03 | 0.00 | 97 | 1018.6 |
| 20260502055204 | 33 | 263 | 0.0 | 0.0 | 0.00 | 0.03 | 0.00 | 97 | 1018.7 |
| 20260502054703 | 33 | 263 | 0.0 | 0.0 | 0.00 | 0.03 | 0.00 | 97 | 1018.7 |
| 20260502054203 | 33 | 263 | 0.0 | 0.0 | 0.00 | 0.03 | 0.00 | 97 | 1018.6 |
| 20260502053703 | 33 | 263 | 0.0 | 0.0 | 0.00 | 0.03 | 0.00 | 97 | 1018.7 |
| 20260502052704 | 33 | 263 | 0.0 | 0.0 | 0.00 | 0.04 | 0.00 | 97 | 1018.7 |
| 20260502052203 | 34 | 263 | 0.0 | 0.0 | 0.00 | 0.04 | 0.00 | 97 | 1018.7 |
| 20260502051704 | 34 | 263 | 0.0 | 0.0 | 0.00 | 0.04 | 0.00 | 97 | 1018.7 |
| 20260502051204 | 34 | 263 | 0.0 | 0.0 | 0.00 | 0.04 | 0.00 | 97 | 1018.6 |
| 20260502050204 | 34 | 263 | 0.0 | 0.0 | 0.00 | 0.04 | 0.00 | 97 | 1018.7 |
| 20260502045204 | 34 | 263 | 0.0 | 0.0 | 0.00 | 0.04 | 0.04 | 97 | 1018.6 |
| 20260502044704 | 34 | 263 | 0.0 | 0.0 | 0.00 | 0.04 | 0.04 | 96 | 1018.6 |
| 20260502043703 | 34 | 263 | 0.0 | 0.0 | 0.00 | 0.04 | 0.04 | 96 | 1018.5 |
| 20260502043203 | 34 | 263 | 0.0 | 0.0 | 0.00 | 0.04 | 0.04 | 96 | 1018.5 |
| 20260502042703 | 34 | 263 | 0.0 | 0.0 | 0.00 | 0.04 | 0.04 | 96 | 1018.5 |
| 20260502042203 | 34 | 263 | 0.0 | 0.0 | 0.00 | 0.04 | 0.04 | 96 | 1018.5 |
| 20260502041704 | 34 | 263 | 0.0 | 0.0 | 0.00 | 0.04 | 0.04 | 96 | 1018.4 |
| 20260502041204 | 34 | 263 | 0.0 | 0.0 | 0.00 | 0.05 | 0.04 | 95 | 1018.4 |
| 20260502040704 | 34 | 263 | 0.0 | 0.0 | 0.00 | 0.05 | 0.04 | 95 | 1018.4 |
| 20260502040203 | 35 | 263 | 0.0 | 0.0 | 0.00 | 0.05 | 0.04 | 95 | 1018.5 |
| 20260502035703 | 35 | 263 | 0.0 | 0.0 | 0.00 | 0.05 | 0.04 | 95 | 1018.4 |
| 20260502035203 | 35 | 263 | 0.0 | 0.0 | 0.00 | 0.06 | 0.04 | 95 | 1018.4 |
| 20260502034704 | 35 | 263 | 0.0 | 0.0 | 0.00 | 0.06 | 0.04 | 94 | 1018.4 |
| 20260502032703 | 35 | 263 | 0.0 | 0.0 | 0.00 | 0.06 | 0.04 | 94 | 1018.3 |
| 20260502032203 | 35 | 263 | 0.0 | 0.0 | 0.00 | 0.06 | 0.04 | 93 | 1018.3 |
| 20260502031704 | 35 | 263 | 0.0 | 0.0 | 0.00 | 0.06 | 0.04 | 93 | 1018.3 |
| 20260502030703 | 36 | 263 | 0.0 | 0.0 | 0.00 | 0.06 | 0.04 | 93 | 1018.3 |
| 20260502030205 | 36 | 263 | 0.0 | 0.0 | 0.00 | 0.06 | 0.04 | 93 | 1018.4 |
| 20260502025703 | 36 | 263 | 0.0 | 0.0 | 0.00 | 0.06 | 0.04 | 93 | 1018.4 |
| 20260502025203 | 36 | 263 | 0.0 | 0.0 | 0.00 | 0.06 | 0.04 | 92 | 1018.3 |
| 20260502024704 | 36 | 263 | 0.0 | 0.0 | 0.00 | 0.06 | 0.04 | 92 | 1018.3 |
| 20260502024204 | 37 | 263 | 0.0 | 0.0 | 0.00 | 0.06 | 0.04 | 92 | 1018.3 |
| 20260502023203 | 37 | 263 | 0.0 | 0.0 | 0.00 | 0.07 | 0.04 | 91 | 1018.2 |
| 20260502022703 | 37 | 263 | 0.0 | 0.0 | 0.00 | 0.07 | 0.04 | 90 | 1018.2 |
| 20260502021703 | 38 | 263 | 0.0 | 0.0 | 0.00 | 0.07 | 0.04 | 89 | 1018.1 |